Total_Precipitation_Accumulation
0.02 0.07 0.12 0.17 0.30 0.13 0.00 0.00 0.00 0.00 0.00 0.00 0.00 0.00 0.00 0.00 0.01 0.13 0.04 0.00 0.00 0.00 0.00 0.02 0.02 0.02 0.02 0.04 0.08 0.10 0.09 0.06 0.10 0.12 0.12 0.15 0.11 0.08 0.04 0.03 0.02 0.01 0.03 0.07 0.08 0.09 0.09 0.13 0.17
0.03 0.06 0.12 0.29 0.21 0.01 0.00 0.00 0.00 0.00 0.00 0.00 0.00 0.00 0.00 0.00 0.00 0.00 0.00 0.01 0.00 0.00 0.00 0.01 0.02 0.02 0.04 0.07 0.13 0.14 0.12 0.09 0.12 0.12 0.12 0.12 0.11 0.06 0.07 0.09 0.04 0.02 0.02 0.03 0.04 0.05 0.08 0.15 0.19
0.01 0.04 0.16 0.22 0.06 0.00 0.00 0.00 0.00 0.00 0.00 0.00 0.00 0.00 0.00 0.00 0.00 0.01 0.01 0.01 0.00 0.00 0.01 0.02 0.05 0.04 0.07 0.12 0.24 0.24 0.19 0.14 0.08 0.07 0.07 0.07 0.06 0.06 0.13 0.06 0.02 0.02 0.03 0.03 0.04 0.05 0.06 0.14 0.21
0.02 0.06 0.24 0.12 0.01 0.00 0.00 0.00 0.00 0.00 0.00 0.00 0.00 0.00 0.00 0.00 0.00 0.00 0.00 0.00 0.00 0.00 0.02 0.08 0.18 0.13 0.14 0.19 0.34 0.29 0.22 0.20 0.09 0.06 0.05 0.05 0.03 0.06 0.08 0.05 0.05 0.02 0.02 0.03 0.03 0.05 0.05 0.13 0.19
0.05 0.15 0.36 0.46 0.04 0.00 0.00 0.00 0.00 0.00 0.00 0.00 0.00 0.00 0.00 0.00 0.00 0.00 0.00 0.00 0.00 0.01 0.02 0.10 0.26 0.22 0.17 0.21 0.32 0.28 0.24 0.25 0.13 0.07 0.06 0.05 0.04 0.07 0.08 0.11 0.06 0.02 0.01 0.02 0.02 0.02 0.04 0.09 0.14
0.10 0.25 0.49 0.59 0.06 0.00 0.00 0.00 0.00 0.00 0.00 0.00 0.00 0.00 0.00 0.00 0.00 0.00 0.00 0.00 0.01 0.02 0.02 0.06 0.18 0.17 0.17 0.24 0.32 0.35 0.28 0.23 0.11 0.08 0.07 0.06 0.06 0.08 0.10 0.10 0.05 0.02 0.01 0.02 0.02 0.01 0.02 0.04 0.10
0.10 0.26 0.33 0.21 0.04 0.01 0.00 0.00 0.00 0.00 0.00 0.00 0.00 0.00 0.00 0.00 0.00 0.00 0.01 0.04 0.06 0.05 0.04 0.05 0.06 0.06 0.11 0.23 0.27 0.43 0.46 0.29 0.13 0.10 0.08 0.07 0.06 0.06 0.07 0.05 0.02 0.01 0.01 0.02 0.01 0.00 0.01 0.03 0.07
0.10 0.16 0.23 0.20 0.10 0.06 0.02 0.01 0.00 0.00 0.00 0.00 0.00 0.00 0.00 0.00 0.00 0.00 0.04 0.11 0.11 0.05 0.02 0.02 0.02 0.03 0.09 0.15 0.26 0.49 0.62 0.47 0.22 0.13 0.10 0.09 0.06 0.05 0.04 0.02 0.01 0.01 0.00 0.00 0.00 0.00 0.00 0.02 0.04
0.10 0.12 0.17 0.21 0.17 0.15 0.07 0.02 0.01 0.01 0.01 0.00 0.00 0.00 0.00 0.00 0.00 0.01 0.03 0.08 0.12 0.07 0.03 0.01 0.02 0.02 0.07 0.14 0.23 0.40 0.58 0.54 0.27 0.16 0.14 0.09 0.05 0.06 0.02 0.00 0.00 0.00 0.00 0.00 0.00 0.00 0.00 0.01 0.02
0.14 0.14 0.16 0.23 0.22 0.18 0.11 0.04 0.04 0.03 0.02 0.02 0.01 0.01 0.00 0.01 0.02 0.03 0.03 0.04 0.05 0.05 0.04 0.03 0.02 0.02 0.03 0.07 0.21 0.29 0.32 0.33 0.20 0.18 0.09 0.10 0.17 0.11 0.02 0.00 0.00 0.01 0.00 0.00 0.01 0.00 0.00 0.00 0.00
0.13 0.12 0.12 0.15 0.17 0.11 0.08 0.07 0.07 0.07 0.05 0.04 0.03 0.03 0.02 0.03 0.07 0.09 0.11 0.10 0.07 0.05 0.03 0.02 0.01 0.01 0.02 0.06 0.15 0.22 0.32 0.32 0.34 0.28 0.14 0.12 0.13 0.06 0.01 0.00 0.00 0.01 0.01 0.00 0.01 0.01 0.00 0.00 0.00
0.10 0.06 0.07 0.09 0.08 0.10 0.08 0.07 0.09 0.09 0.07 0.05 0.04 0.05 0.05 0.07 0.10 0.11 0.14 0.17 0.18 0.17 0.13 0.09 0.04 0.02 0.02 0.04 0.11 0.18 0.26 0.35 0.35 0.20 0.05 0.04 0.07 0.05 0.01 0.00 0.01 0.01 0.01 0.00 0.00 0.00 0.00 0.00 0.00
0.11 0.11 0.07 0.08 0.10 0.13 0.09 0.07 0.09 0.11 0.09 0.06 0.07 0.12 0.18 0.20 0.20 0.18 0.17 0.17 0.19 0.21 0.22 0.19 0.12 0.07 0.06 0.05 0.08 0.11 0.21 0.29 0.23 0.18 0.09 0.06 0.05 0.05 0.03 0.01 0.01 0.01 0.01 0.00 0.00 0.00 0.00 0.00 0.00
0.06 0.12 0.12 0.10 0.11 0.10 0.09 0.09 0.12 0.14 0.12 0.11 0.13 0.20 0.28 0.33 0.35 0.33 0.29 0.27 0.26 0.24 0.24 0.25 0.21 0.18 0.15 0.12 0.11 0.12 0.14 0.18 0.18 0.14 0.08 0.11 0.08 0.05 0.05 0.03 0.02 0.02 0.01 0.01 0.00 0.00 0.00 0.00 0.00
0.05 0.06 0.05 0.05 0.05 0.06 0.08 0.10 0.15 0.16 0.14 0.13 0.15 0.19 0.28 0.37 0.40 0.42 0.37 0.32 0.30 0.30 0.27 0.29 0.32 0.32 0.29 0.28 0.28 0.22 0.21 0.17 0.15 0.16 0.15 0.16 0.15 0.12 0.10 0.06 0.04 0.04 0.03 0.03 0.03 0.01 0.00 0.00 0.01
0.02 0.02 0.02 0.06 0.09 0.12 0.10 0.10 0.17 0.20 0.18 0.15 0.13 0.14 0.17 0.21 0.28 0.36 0.36 0.31 0.30 0.28 0.25 0.29 0.33 0.36 0.39 0.38 0.39 0.36 0.35 0.31 0.29 0.26 0.17 0.16 0.19 0.20 0.17 0.14 0.12 0.13 0.09 0.09 0.08 0.04 0.02 0.01 0.01
0.01 0.02 0.04 0.06 0.09 0.15 0.16 0.18 0.20 0.17 0.15 0.13 0.10 0.09 0.11 0.13 0.18 0.25 0.28 0.27 0.26 0.25 0.23 0.25 0.30 0.34 0.39 0.43 0.48 0.47 0.46 0.51 0.56 0.42 0.26 0.31 0.36 0.32 0.31 0.34 0.32 0.27 0.22 0.15 0.10 0.07 0.06 0.04 0.03
0.06 0.08 0.10 0.10 0.09 0.08 0.11 0.15 0.15 0.08 0.05 0.06 0.07 0.06 0.06 0.07 0.11 0.17 0.20 0.21 0.23 0.23 0.22 0.24 0.29 0.30 0.31 0.40 0.52 0.58 0.53 0.57 0.72 0.70 0.59 0.60 0.65 0.59 0.57 0.56 0.47 0.40 0.37 0.26 0.21 0.20 0.14 0.10 0.06
0.12 0.11 0.08 0.06 0.04 0.04 0.04 0.05 0.07 0.05 0.04 0.05 0.06 0.05 0.04 0.05 0.06 0.09 0.12 0.15 0.16 0.17 0.19 0.23 0.28 0.30 0.31 0.37 0.45 0.50 0.55 0.71 0.88 0.89 0.86 0.89 0.88 0.83 0.84 0.85 0.76 0.61 0.50 0.44 0.42 0.46 0.37 0.25 0.12
0.03 0.01 0.01 0.01 0.01 0.01 0.01 0.03 0.05 0.06 0.05 0.05 0.05 0.05 0.04 0.04 0.04 0.04 0.06 0.09 0.10 0.09 0.12 0.17 0.25 0.34 0.39 0.43 0.56 0.69 0.88 0.96 1.06 1.14 1.08 1.03 1.00 0.95 0.97 1.06 1.08 0.92 0.80 0.77 0.66 0.64 0.67 0.54 0.33
0.01 0.01 0.01 0.01 0.00 0.00 0.01 0.02 0.04 0.06 0.07 0.08 0.07 0.07 0.06 0.04 0.04 0.03 0.04 0.05 0.07 0.07 0.08 0.14 0.28 0.47 0.65 0.77 0.99 1.25 1.49 1.54 1.43 1.36 1.35 1.28 1.23 1.16 1.07 1.10 1.15 1.04 0.97 0.93 0.95 0.94 0.98 0.85 0.68
0.00 0.00 0.01 0.00 0.00 0.00 0.00 0.01 0.04 0.10 0.14 0.15 0.14 0.13 0.11 0.11 0.09 0.07 0.07 0.07 0.07 0.09 0.17 0.31 0.54 0.83 1.08 1.23 1.42 1.63 1.73 1.76 1.68 1.64 1.57 1.47 1.32 1.18 1.06 1.08 1.14 1.18 1.20 1.19 1.21 1.07 1.09 1.05 0.86
0.00 0.00 0.00 0.00 0.00 0.00 0.00 0.01 0.07 0.16 0.24 0.27 0.28 0.27 0.25 0.24 0.18 0.17 0.19 0.19 0.25 0.34 0.51 0.76 1.02 1.27 1.42 1.46 1.55 1.74 1.89 2.03 2.03 1.89 1.73 1.54 1.41 1.30 1.14 1.08 1.07 1.06 1.07 1.11 1.12 1.03 1.06 1.05 1.05
0.01 0.02 0.02 0.02 0.02 0.01 0.01 0.04 0.15 0.24 0.30 0.35 0.37 0.33 0.31 0.29 0.28 0.32 0.42 0.50 0.64 0.72 0.88 1.08 1.23 1.38 1.37 1.36 1.41 1.53 1.70 1.84 1.87 1.87 1.83 1.68 1.47 1.30 1.16 1.04 1.04 1.02 0.92 0.94 0.98 0.95 1.01 1.00 0.98
0.03 0.07 0.07 0.05 0.05 0.04 0.06 0.18 0.26 0.26 0.26 0.32 0.34 0.33 0.33 0.33 0.40 0.54 0.66 0.76 0.87 0.94 1.05 1.08 1.08 1.13 1.16 1.15 1.17 1.22 1.25 1.28 1.31 1.38 1.28 1.15 1.03 0.96 0.92 0.81 0.80 0.81 0.77 0.84 0.78 0.67 0.68 0.75 0.79
0.01 0.04 0.10 0.09 0.07 0.10 0.15 0.36 0.40 0.30 0.25 0.24 0.26 0.31 0.41 0.56 0.65 0.73 0.79 0.83 0.85 0.94 1.02 1.02 0.98 0.96 0.92 0.86 0.84 0.85 0.86 0.85 0.83 0.79 0.72 0.66 0.61 0.56 0.54 0.52 0.48 0.46 0.43 0.53 0.62 0.53 0.48 0.44 0.49
0.01 0.03 0.09 0.18 0.13 0.12 0.20 0.44 0.44 0.29 0.23 0.22 0.23 0.31 0.46 0.67 0.91 1.04 0.98 0.86 0.74 0.75 0.85 0.87 0.81 0.76 0.70 0.66 0.68 0.70 0.65 0.59 0.54 0.49 0.44 0.41 0.38 0.36 0.35 0.33 0.31 0.31 0.29 0.31 0.35 0.43 0.42 0.32 0.29
0.02 0.05 0.13 0.23 0.22 0.23 0.30 0.47 0.43 0.31 0.27 0.24 0.29 0.39 0.57 0.78 0.96 1.20 1.29 1.16 0.88 0.69 0.66 0.63 0.62 0.63 0.63 0.61 0.61 0.59 0.49 0.43 0.41 0.38 0.36 0.35 0.35 0.34 0.34 0.26 0.22 0.20 0.21 0.27 0.31 0.27 0.29 0.27 0.27
0.04 0.10 0.16 0.20 0.23 0.34 0.55 0.70 0.59 0.49 0.43 0.42 0.46 0.53 0.59 0.86 1.14 1.27 1.31 1.13 0.96 0.72 0.62 0.58 0.55 0.57 0.61 0.57 0.57 0.52 0.44 0.37 0.32 0.30 0.28 0.25 0.24 0.25 0.25 0.23 0.23 0.22 0.21 0.22 0.20 0.17 0.15 0.15 0.16
0.11 0.19 0.27 0.35 0.39 0.41 0.53 0.65 0.53 0.55 0.61 0.55 0.59 0.69 0.71 0.76 0.80 0.83 0.93 0.92 0.86 0.73 0.66 0.69 0.73 0.72 0.64 0.56 0.53 0.48 0.42 0.36 0.35 0.33 0.28 0.25 0.22 0.23 0.22 0.23 0.26 0.27 0.27 0.26 0.24 0.20 0.16 0.14 0.13